星链-3149 (STARLINK-3149 )

导读

STARLINK-3149是美国于2021年11月13日发射的星链卫星,隶属于SpaceX公司打造的星链互联网星座项目,该项目旨在为全球提供低延迟、高速率的卫星互联网服务。该卫星运行在近地轨道,是星链大规模组网进程中的一员,为星座全球覆盖能力的构建提供支撑。

基本信息
目录编号:
49423
目录名称:
STARLINK-3149
国际标识:
2021-104R
轨道中心:
EARTH
卫星名称:
星链-3149
卫星全名:
星链-3149 (STARLINK-3149 )
卫星状态:
已陨落 最后检测时间 2026-04-01
发射日期:
2021-11-13 UTC
国别 :
美国 (US)
星等 :
--
轨道信息
数据来源 国际轨道数据
星历时间: 2026-04-01T05:21:20+0800
轨道信息已过期78天
半长轴: 6520.379km
偏心率: 0.0002942
轨道倾角: 53.201°
近地点辐角 322.993°
升交点赤经 104.588°
平近点角 37.092°
近地点: 140.323km
远地点: 144.161km
周期: 87.331分钟
每日圈数: 16.488972
详细信息
固有亮度:
5
最大亮度:
2.5
卫星平台:
Starlink v1.5
覆盖范围:
全球
运营商:
太空探索技术公司
运营商所在国:
美国
制造商(研发单位):
太空探索技术公司
制造商所在国:
美国
使用方式:
暂无
卫星简介
星链(Starlink)计划是由太空探索技术公司(SpaceX)提出的一个巨型低轨卫星互联网星座项目,计划在2019年至2024年间在太空搭建由约1.2万颗卫星组成的“星链”网络,其中1584颗将部署在地球上空550千米处的近地轨道,并从2020年开始工作。该卫星仍在工作。